Regional Weather Roundup
Issued by NWS

Home | Current Version | Previous Version | Text Only | Print | Product List | Glossary On
Versions: 1 2 3 4 5 6 7 8 9 10 11 12 13 14 15 16 17 18 19 20 21 22 23 24 25 26 27 28 29 30 31 32 33 34 35 36 37 38 39 40 41 42 43 44 45 46 47 48 49 50
000
ASUS43 KLSX 031607
RWRMO

WEATHER SUMMARY FOR MISSOURI
NATIONAL WEATHER SERVICE SPRINGFIELD MO
1100 AM CDT SUN MAY 03 2015

NOTE: "FAIR" INDICATES FEW OR NO CLOUDS BELOW 12,000 FEET WITH NO
       SIGNIFICANT WEATHER AND/OR OBSTRUCTIONS TO VISIBILITY.
       CURRENT SKY AND/OR WEATHER CONDITIONS ARE NOT AVAILABLE FOR
       CHILLICOTHE AND FARMINGTON.

MOZ001>031-035>038-043-044-053-054-031700-
...NORTHERN AND WESTERN MISSOURI...

CITY           SKY/WX    TMP DP  RH WIND       PRES   REMARKS
KANSAS CTY INT MOSUNNY   75  58  55 S16G28    29.86S
KANSAS C DTWN  PTSUNNY   76  55  48 SW14G23   29.86F
LEE`S SUMMIT   PTSUNNY   73  56  54 SW16G22   29.89S
ST JOSEPH      SUNNY     76  57  51 SW17G30   29.82F
CHILLICOTHE      N/A     73  57  57 S14G23    29.89R
KIRKSVILLE     SUNNY     73  58  59 SW16G25   29.92S

$$
MOZ066>068-077>081-088>096-101>105-031700-
...SOUTHWEST MISSOURI...

CITY           SKY/WX    TMP DP  RH WIND       PRES   REMARKS
SPRINGFIELD    MOSUNNY   73  54  51 S15       30.00S
JOPLIN         SUNNY     75  55  49 SW20G28   29.99R

$$
MOZ032>034-039>042-045>050-055>058-069>072-031700-
...CENTRAL MISSOURI...

CITY           SKY/WX    TMP DP  RH WIND       PRES   REMARKS
COLUMBIA       MOSUNNY   74  56  53 S14       29.97S
JEFFERSON CITY MOSUNNY   75  53  46 S10       29.96F
ROLLA          MOSUNNY   74  55  51 S12       30.00F
SEDALIA        PTSUNNY   74  54  49 SW18G25   29.95R
WHITEMAN AFB   PTSUNNY   72  56  57 SW23G30   29.90F
WARRENSBURG    PTSUNNY   73  54  49 S16G24    29.91S
OSAGE BEACH    MOSUNNY   79  54  41 S10G23    29.98F

$$
MOZ051-052-059>065-031700-
...EAST CENTRAL MISSOURI...

CITY           SKY/WX    TMP DP  RH WIND       PRES   REMARKS
ST LOUIS INTL  PTSUNNY   78  51  38 S10       30.02F
SPIRIT OF STL  MOSUNNY   76  51  41 SW9       30.00F
ST CHARLES     MOSUNNY   76  53  44 S9        29.99F

$$
MOZ072>076-082>087-097>100-106>115-031700-
...SOUTH CENTRAL AND SOUTHEAST MISSOURI...

CITY           SKY/WX    TMP DP  RH WIND       PRES   REMARKS
CAPE GIRARDEAU MOSUNNY   75  48  38 SW13G18   30.09S
FARMINGTON     PTSUNNY   73  46  38 SW10      30.10S
POPLAR BLUFF   PTSUNNY   73  47  39 S10       30.09R
WEST PLAINS    MOSUNNY   72  48  42 S8        30.07S

$$



USA.gov is the U.S. government's official web portal to all federal, state and local government web resources and services.